Time,TemperatureF,DewpointF,PressureIn,WindDirection,WindDirectionDegrees,WindSpeedMPH,WindSpeedGustMPH,Humidity,HourlyPrecipIn,Conditions,Clouds,dailyrainin,SoftwareType,DateUTC
2013-12-07 00:03:00,6.8,0.3,30.53,SW,225,7.9,8.1,74,0.00,,,0.00,WUHU216HW,2013-12-07 06:03:00,
2013-12-07 00:09:00,6.7,0.4,30.53,SW,225,4.9,7.9,75,0.00,,,0.00,WUHU216HW,2013-12-07 06:09:00,
2013-12-07 00:15:00,6.7,0.4,30.53,SW,225,8.1,10.3,75,0.00,,,0.00,WUHU216HW,2013-12-07 06:15:00,
2013-12-07 00:20:00,6.7,0.4,30.53,SW,225,6.9,10.3,75,0.00,,,0.00,WUHU216HW,2013-12-07 06:20:00,
2013-12-07 00:25:00,6.7,0.4,30.53,SW,225,5.9,8.4,75,0.00,,,0.00,WUHU216HW,2013-12-07 06:25:00,
2013-12-07 00:30:00,6.5,0.2,30.53,SW,225,4.9,7.6,75,0.00,,,0.00,WUHU216HW,2013-12-07 06:30:00,
2013-12-07 00:35:00,6.3,0.0,30.53,SW,225,2.8,6.2,75,0.00,,,0.00,WUHU216HW,2013-12-07 06:35:00,
2013-12-07 00:41:00,6.1,-0.2,30.53,SW,225,5.6,5.9,75,0.00,,,0.00,WUHU216HW,2013-12-07 06:41:00,
2013-12-07 00:46:00,6.1,0.1,30.53,SW,225,4.4,5.9,76,0.00,,,0.00,WUHU216HW,2013-12-07 06:46:00,
2013-12-07 00:51:00,5.9,-0.1,30.53,SW,225,2.4,5.9,76,0.00,,,0.00,WUHU216HW,2013-12-07 06:51:00,
2013-12-07 00:56:00,5.9,-0.1,30.54,SW,225,4.2,6.2,76,0.00,,,0.00,WUHU216HW,2013-12-07 06:56:00,
2013-12-07 01:01:00,5.8,-0.3,30.54,SW,225,2.4,6.2,76,0.00,,,0.00,WUHU216HW,2013-12-07 07:01:00,
2013-12-07 01:08:00,5.8,-0.3,30.54,SW,225,7.4,11.3,76,0.00,,,0.00,WUHU216HW,2013-12-07 07:08:00,
2013-12-07 01:13:00,5.8,-0.3,30.54,SW,225,7.6,11.3,76,0.00,,,0.00,WUHU216HW,2013-12-07 07:13:00,
2013-12-07 01:18:00,5.6,-0.4,30.54,SW,225,6.9,11.6,76,0.00,,,0.00,WUHU216HW,2013-12-07 07:18:00,
2013-12-07 01:23:00,5.4,-0.6,30.54,SW,225,4.9,11.6,76,0.00,,,0.00,WUHU216HW,2013-12-07 07:23:00,
2013-12-07 01:28:00,5.4,-0.6,30.54,SW,225,5.6,9.4,76,0.00,,,0.00,WUHU216HW,2013-12-07 07:28:00,
2013-12-07 01:34:00,5.6,-0.4,30.55,SW,225,2.8,7.4,76,0.00,,,0.00,WUHU216HW,2013-12-07 07:34:00,
2013-12-07 01:39:00,5.4,-0.6,30.55,SW,225,4.4,8.4,76,0.00,,,0.00,WUHU216HW,2013-12-07 07:39:00,
2013-12-07 01:44:00,5.4,-0.6,30.56,SW,225,3.7,8.4,76,0.00,,,0.00,WUHU216HW,2013-12-07 07:44:00,
2013-12-07 01:50:00,5.0,-1.0,30.56,SW,225,3.7,8.6,76,0.00,,,0.00,WUHU216HW,2013-12-07 07:50:00,
2013-12-07 01:55:00,5.0,-0.7,30.56,SW,225,5.2,8.6,77,0.00,,,0.00,WUHU216HW,2013-12-07 07:55:00,
2013-12-07 02:00:00,4.9,-0.9,30.56,SW,225,2.2,8.6,77,0.00,,,0.00,WUHU216HW,2013-12-07 08:00:00,
2013-12-07 02:05:00,4.7,-0.7,30.56,SW,225,4.0,8.6,78,0.00,,,0.00,WUHU216HW,2013-12-07 08:05:00,
2013-12-07 02:11:00,4.7,-0.7,30.56,SW,225,5.9,7.6,78,0.00,,,0.00,WUHU216HW,2013-12-07 08:11:00,
2013-12-07 02:16:00,4.7,-0.4,30.56,SW,225,3.2,7.4,79,0.00,,,0.00,WUHU216HW,2013-12-07 08:16:00,
2013-12-07 02:21:00,4.7,-0.4,30.57,SW,225,2.8,7.4,79,0.00,,,0.00,WUHU216HW,2013-12-07 08:21:00,
2013-12-07 02:28:00,4.5,-0.6,30.57,SW,225,5.4,6.4,79,0.00,,,0.00,WUHU216HW,2013-12-07 08:28:00,
2013-12-07 02:33:00,4.3,-0.8,30.57,SW,225,9.8,9.8,79,0.00,,,0.00,WUHU216HW,2013-12-07 08:33:00,
2013-12-07 02:38:00,4.1,-1.2,30.57,SW,225,5.2,9.8,78,0.00,,,0.00,WUHU216HW,2013-12-07 08:38:00,
2013-12-07 02:43:00,4.0,-1.2,30.57,SW,225,5.9,8.6,79,0.00,,,0.00,WUHU216HW,2013-12-07 08:43:00,
2013-12-07 02:48:00,4.0,-1.2,30.57,SW,225,4.0,8.6,79,0.00,,,0.00,WUHU216HW,2013-12-07 08:48:00,
2013-12-07 02:54:00,4.1,-1.2,30.57,SW,225,4.2,6.4,78,0.00,,,0.00,WUHU216HW,2013-12-07 08:54:00,
2013-12-07 02:59:00,4.0,-1.4,30.57,SW,225,5.2,5.2,78,0.00,,,0.00,WUHU216HW,2013-12-07 08:59:00,
2013-12-07 03:04:00,3.8,-1.6,30.57,SW,225,5.6,7.2,78,0.00,,,0.00,WUHU216HW,2013-12-07 09:04:00,
2013-12-07 03:09:00,3.6,-1.8,30.57,SW,225,6.2,7.2,78,0.00,,,0.00,WUHU216HW,2013-12-07 09:09:00,
2013-12-07 03:14:00,3.6,-1.8,30.57,SW,225,2.8,6.9,78,0.00,,,0.00,WUHU216HW,2013-12-07 09:14:00,
2013-12-07 03:20:00,3.4,-2.0,30.57,SW,225,7.6,7.6,78,0.00,,,0.00,WUHU216HW,2013-12-07 09:20:00,
2013-12-07 03:26:00,3.2,-2.2,30.58,SW,225,4.2,7.6,78,0.00,,,0.00,WUHU216HW,2013-12-07 09:26:00,
2013-12-07 03:31:00,3.2,-2.2,30.57,SW,225,3.7,8.4,78,0.00,,,0.00,WUHU216HW,2013-12-07 09:31:00,
2013-12-07 03:36:00,3.2,-1.9,30.57,SW,225,3.4,8.4,79,0.00,,,0.00,WUHU216HW,2013-12-07 09:36:00,
2013-12-07 03:41:00,3.1,-2.1,30.57,SW,225,2.0,5.9,79,0.00,,,0.00,WUHU216HW,2013-12-07 09:41:00,
2013-12-07 03:46:00,2.9,-2.2,30.57,SW,225,3.4,5.2,79,0.00,,,0.00,WUHU216HW,2013-12-07 09:46:00,
2013-12-07 03:52:00,2.7,-2.4,30.58,SW,225,3.0,6.9,79,0.00,,,0.00,WUHU216HW,2013-12-07 09:52:00,
2013-12-07 03:57:00,2.7,-2.4,30.58,SW,225,2.0,6.9,79,0.00,,,0.00,WUHU216HW,2013-12-07 09:57:00,
2013-12-07 04:03:00,2.7,-2.4,30.58,SW,225,6.4,6.4,79,0.00,,,0.00,WUHU216HW,2013-12-07 10:03:00,
2013-12-07 04:08:00,2.9,-2.2,30.58,SW,225,7.2,7.2,79,0.00,,,0.00,WUHU216HW,2013-12-07 10:08:00,
2013-12-07 04:14:00,2.9,-2.5,30.58,SW,225,5.9,7.2,78,0.00,,,0.00,WUHU216HW,2013-12-07 10:14:00,
2013-12-07 04:21:00,2.5,-3.1,30.58,SW,225,7.4,7.4,77,0.00,,,0.00,WUHU216HW,2013-12-07 10:21:00,
2013-12-07 04:29:00,2.5,-3.1,30.59,SW,225,3.4,7.4,77,0.00,,,0.00,WUHU216HW,2013-12-07 10:29:00,
2013-12-07 04:34:00,2.3,-3.3,30.59,SW,225,5.6,8.6,77,0.00,,,0.00,WUHU216HW,2013-12-07 10:34:00,
2013-12-07 04:39:00,2.3,-3.3,30.59,SW,225,5.4,8.6,77,0.00,,,0.00,WUHU216HW,2013-12-07 10:39:00,
2013-12-07 04:45:00,2.2,-3.5,30.59,SW,225,7.9,7.9,77,0.00,,,0.00,WUHU216HW,2013-12-07 10:45:00,
2013-12-07 04:50:00,2.2,-3.5,30.59,SW,225,3.2,7.9,77,0.00,,,0.00,WUHU216HW,2013-12-07 10:50:00,
2013-12-07 04:57:00,2.0,-3.7,30.59,SW,225,3.7,8.4,77,0.00,,,0.00,WUHU216HW,2013-12-07 10:57:00,
2013-12-07 05:02:00,2.0,-3.7,30.59,SW,225,5.9,6.9,77,0.00,,,0.00,WUHU216HW,2013-12-07 11:02:00,
2013-12-07 05:07:00,2.0,-3.4,30.60,SW,225,3.7,6.9,78,0.00,,,0.00,WUHU216HW,2013-12-07 11:07:00,
2013-12-07 05:12:00,2.0,-3.4,30.60,SW,225,6.4,6.9,78,0.00,,,0.00,WUHU216HW,2013-12-07 11:12:00,
2013-12-07 05:17:00,1.8,-3.6,30.60,SW,225,5.9,9.4,78,0.00,,,0.00,WUHU216HW,2013-12-07 11:17:00,
2013-12-07 05:22:00,2.0,-3.4,30.60,SW,225,3.2,9.4,78,0.00,,,0.00,WUHU216HW,2013-12-07 11:22:00,
2013-12-07 05:28:00,2.0,-3.7,30.59,SW,225,2.0,5.9,77,0.00,,,0.00,WUHU216HW,2013-12-07 11:28:00,
2013-12-07 05:34:00,1.8,-3.9,30.60,SW,225,2.8,7.2,77,0.00,,,0.00,WUHU216HW,2013-12-07 11:34:00,
2013-12-07 05:40:00,1.8,-3.9,30.60,SW,225,4.4,7.2,77,0.00,,,0.00,WUHU216HW,2013-12-07 11:40:00,
2013-12-07 05:46:00,1.6,-3.8,30.60,SW,225,3.4,6.9,78,0.00,,,0.00,WUHU216HW,2013-12-07 11:46:00,
2013-12-07 05:51:00,1.6,-3.8,30.60,SW,225,3.2,6.9,78,0.00,,,0.00,WUHU216HW,2013-12-07 11:51:00,
2013-12-07 05:56:00,1.6,-3.8,30.60,SW,225,3.0,6.6,78,0.00,,,0.00,WUHU216HW,2013-12-07 11:56:00,
2013-12-07 06:01:00,1.6,-3.5,30.60,SW,225,6.4,6.6,79,0.00,,,0.00,WUHU216HW,2013-12-07 12:01:00,
2013-12-07 06:08:00,1.4,-4.0,30.60,SW,225,5.9,8.6,78,0.00,,,0.00,WUHU216HW,2013-12-07 12:08:00,
2013-12-07 06:13:00,1.4,-4.0,30.60,SW,225,5.9,7.9,78,0.00,,,0.00,WUHU216HW,2013-12-07 12:13:00,
2013-12-07 06:18:00,1.4,-4.0,30.61,SW,225,7.6,7.6,78,0.00,,,0.00,WUHU216HW,2013-12-07 12:18:00,
2013-12-07 06:23:00,1.4,-4.0,30.61,SW,225,4.7,7.6,78,0.00,,,0.00,WUHU216HW,2013-12-07 12:23:00,
2013-12-07 06:28:00,1.3,-4.1,30.61,SW,225,3.2,5.4,78,0.00,,,0.00,WUHU216HW,2013-12-07 12:28:00,
2013-12-07 06:33:00,1.3,-4.1,30.61,SW,225,2.0,4.9,78,0.00,,,0.00,WUHU216HW,2013-12-07 12:33:00,
2013-12-07 06:38:00,1.3,-3.9,30.62,SW,225,3.4,4.4,79,0.00,,,0.00,WUHU216HW,2013-12-07 12:38:00,
2013-12-07 06:43:00,1.4,-3.7,30.62,SW,225,5.4,5.4,79,0.00,,,0.00,WUHU216HW,2013-12-07 12:43:00,
2013-12-07 06:48:00,1.4,-4.0,30.62,SW,225,4.0,5.6,78,0.00,,,0.00,WUHU216HW,2013-12-07 12:48:00,
2013-12-07 06:53:00,1.3,-4.1,30.62,SW,225,4.2,5.6,78,0.00,,,0.00,WUHU216HW,2013-12-07 12:53:00,
2013-12-07 06:58:00,1.1,-4.3,30.62,SW,225,5.2,5.2,78,0.00,,,0.00,WUHU216HW,2013-12-07 12:58:00,
2013-12-07 07:03:00,1.1,-4.3,30.62,SW,225,2.2,5.2,78,0.00,,,0.00,WUHU216HW,2013-12-07 13:03:00,
2013-12-07 07:08:00,1.1,-4.3,30.63,SW,225,3.7,5.4,78,0.00,,,0.00,WUHU216HW,2013-12-07 13:08:00,
2013-12-07 07:14:00,1.1,-4.3,30.62,SW,225,3.4,5.4,78,0.00,,,0.00,WUHU216HW,2013-12-07 13:14:00,
2013-12-07 07:19:00,1.1,-4.0,30.63,SW,225,7.4,7.4,79,0.00,,,0.00,WUHU216HW,2013-12-07 13:19:00,
2013-12-07 07:24:00,1.1,-4.0,30.63,SW,225,6.9,7.4,79,0.00,,,0.00,WUHU216HW,2013-12-07 13:24:00,
2013-12-07 07:29:00,1.1,-4.0,30.63,SW,225,2.4,6.9,79,0.00,,,0.00,WUHU216HW,2013-12-07 13:29:00,
2013-12-07 07:35:00,1.1,-4.0,30.64,SW,225,7.2,7.2,79,0.00,,,0.00,WUHU216HW,2013-12-07 13:35:00,
2013-12-07 07:40:00,1.1,-4.0,30.64,SW,225,3.0,7.2,79,0.00,,,0.00,WUHU216HW,2013-12-07 13:40:00,
2013-12-07 07:47:00,1.3,-3.9,30.64,SW,225,5.6,7.2,79,0.00,,,0.00,WUHU216HW,2013-12-07 13:47:00,
2013-12-07 07:52:00,1.6,-3.5,30.64,SW,225,2.4,7.2,79,0.00,,,0.00,WUHU216HW,2013-12-07 13:52:00,
2013-12-07 07:57:00,1.8,-3.6,30.64,SW,225,6.9,6.9,78,0.00,,,0.00,WUHU216HW,2013-12-07 13:57:00,
2013-12-07 08:02:00,1.8,-3.6,30.64,SW,225,5.9,6.9,78,0.00,,,0.00,WUHU216HW,2013-12-07 14:02:00,
2013-12-07 08:07:00,1.8,-3.9,30.64,SW,225,4.4,7.2,77,0.00,,,0.00,WUHU216HW,2013-12-07 14:07:00,
2013-12-07 08:12:00,2.0,-3.7,30.65,SW,225,8.1,9.4,77,0.00,,,0.00,WUHU216HW,2013-12-07 14:12:00,
2013-12-07 08:17:00,2.0,-3.7,30.65,SW,225,4.0,9.4,77,0.00,,,0.00,WUHU216HW,2013-12-07 14:17:00,
2013-12-07 08:23:00,2.2,-3.2,30.65,SW,225,5.4,6.9,78,0.00,,,0.00,WUHU216HW,2013-12-07 14:23:00,
2013-12-07 08:28:00,2.2,-3.2,30.65,SW,225,6.2,6.6,78,0.00,,,0.00,WUHU216HW,2013-12-07 14:28:00,
2013-12-07 08:33:00,2.3,-3.1,30.65,SW,225,5.9,7.2,78,0.00,,,0.00,WUHU216HW,2013-12-07 14:33:00,
2013-12-07 08:39:00,2.5,-2.9,30.65,SW,225,2.8,10.8,78,0.00,,,0.00,WUHU216HW,2013-12-07 14:39:00,
2013-12-07 08:44:00,2.5,-2.9,30.65,SW,225,7.6,10.8,78,0.00,,,0.00,WUHU216HW,2013-12-07 14:44:00,
2013-12-07 08:50:00,2.9,-2.2,30.66,SW,225,5.2,8.1,79,0.00,,,0.00,WUHU216HW,2013-12-07 14:50:00,
2013-12-07 08:55:00,2.9,-2.5,30.66,SW,225,5.9,5.9,78,0.00,,,0.00,WUHU216HW,2013-12-07 14:55:00,
2013-12-07 09:00:00,3.1,-2.3,30.66,SW,225,5.4,5.9,78,0.00,,,0.00,WUHU216HW,2013-12-07 15:00:00,
2013-12-07 09:05:00,3.2,-2.2,30.66,SW,225,4.4,7.2,78,0.00,,,0.00,WUHU216HW,2013-12-07 15:05:00,
2013-12-07 09:10:00,3.6,-1.8,30.66,SW,225,4.2,7.2,78,0.00,,,0.00,WUHU216HW,2013-12-07 15:10:00,
2013-12-07 09:15:00,4.0,-1.7,30.67,SW,225,7.9,7.9,77,0.00,,,0.00,WUHU216HW,2013-12-07 15:15:00,
2013-12-07 09:20:00,4.0,-1.7,30.66,SW,225,7.4,7.9,77,0.00,,,0.00,WUHU216HW,2013-12-07 15:20:00,
2013-12-07 09:25:00,4.0,-1.7,30.66,SW,225,6.6,8.1,77,0.00,,,0.00,WUHU216HW,2013-12-07 15:25:00,
2013-12-07 09:31:00,4.1,-1.5,30.66,SW,225,5.2,10.8,77,0.00,,,0.00,WUHU216HW,2013-12-07 15:31:00,
2013-12-07 09:36:00,4.5,-1.5,30.66,SW,225,4.0,10.8,76,0.00,,,0.00,WUHU216HW,2013-12-07 15:36:00,
2013-12-07 09:41:00,4.7,-1.3,30.67,SW,225,4.7,6.9,76,0.00,,,0.00,WUHU216HW,2013-12-07 15:41:00,
2013-12-07 09:46:00,4.7,-1.3,30.67,SW,225,7.6,7.6,76,0.00,,,0.00,WUHU216HW,2013-12-07 15:46:00,
2013-12-07 09:51:00,4.9,-1.2,30.67,SW,225,4.9,7.6,76,0.00,,,0.00,WUHU216HW,2013-12-07 15:51:00,
2013-12-07 09:56:00,5.0,-1.0,30.67,SW,225,4.2,7.2,76,0.00,,,0.00,WUHU216HW,2013-12-07 15:56:00,
2013-12-07 10:01:00,5.2,-1.1,30.67,SW,225,3.2,7.2,75,0.00,,,0.00,WUHU216HW,2013-12-07 16:01:00,
2013-12-07 10:06:00,5.4,-0.9,30.67,SW,225,5.4,7.9,75,0.00,,,0.00,WUHU216HW,2013-12-07 16:06:00,
2013-12-07 10:11:00,5.9,-0.4,30.67,SW,225,3.0,7.9,75,0.00,,,0.00,WUHU216HW,2013-12-07 16:11:00,
2013-12-07 10:17:00,6.1,-0.2,30.67,SW,225,4.4,7.6,75,0.00,,,0.00,WUHU216HW,2013-12-07 16:17:00,
2013-12-07 10:22:00,6.1,-0.2,30.67,SW,225,5.2,6.6,75,0.00,,,0.00,WUHU216HW,2013-12-07 16:22:00,
2013-12-07 10:27:00,6.7,0.1,30.67,SW,225,6.4,6.6,74,0.00,,,0.00,WUHU216HW,2013-12-07 16:27:00,
2013-12-07 10:32:00,6.8,0.0,30.67,SW,225,5.2,6.4,73,0.00,,,0.00,WUHU216HW,2013-12-07 16:32:00,
2013-12-07 10:37:00,7.0,0.2,30.67,SW,225,5.9,7.9,73,0.00,,,0.00,WUHU216HW,2013-12-07 16:37:00,
2013-12-07 10:42:00,7.2,0.4,30.67,SW,225,6.9,7.9,73,0.00,,,0.00,WUHU216HW,2013-12-07 16:42:00,
2013-12-07 10:47:00,7.0,0.2,30.67,SW,225,6.4,6.9,73,0.00,,,0.00,WUHU216HW,2013-12-07 16:47:00,
2013-12-07 10:52:00,7.2,0.4,30.67,SW,225,4.4,6.4,73,0.00,,,0.00,WUHU216HW,2013-12-07 16:52:00,
2013-12-07 10:57:00,7.4,0.6,30.66,SW,225,4.0,5.9,73,0.00,,,0.00,WUHU216HW,2013-12-07 16:57:00,
2013-12-07 11:02:00,7.6,0.7,30.67,SW,225,5.6,6.2,73,0.00,,,0.00,WUHU216HW,2013-12-07 17:02:00,
2013-12-07 11:07:00,7.9,1.1,30.66,SW,225,1.8,6.2,73,0.00,,,0.00,WUHU216HW,2013-12-07 17:07:00,
2013-12-07 11:12:00,8.3,1.5,30.67,SW,225,2.8,5.9,73,0.00,,,0.00,WUHU216HW,2013-12-07 17:12:00,
2013-12-07 11:17:00,8.5,1.3,30.66,SW,225,5.9,6.6,72,0.00,,,0.00,WUHU216HW,2013-12-07 17:17:00,
2013-12-07 11:22:00,8.6,1.4,30.66,SW,225,4.0,6.9,72,0.00,,,0.00,WUHU216HW,2013-12-07 17:22:00,
2013-12-07 11:27:00,8.6,1.2,30.66,SW,225,3.7,6.9,71,0.00,,,0.00,WUHU216HW,2013-12-07 17:27:00,
2013-12-07 11:32:00,9.0,1.8,30.66,SW,225,0.4,6.9,72,0.00,,,0.00,WUHU216HW,2013-12-07 17:32:00,
2013-12-07 11:37:00,9.2,2.3,30.66,SW,225,4.0,5.9,73,0.00,,,0.00,WUHU216HW,2013-12-07 17:37:00,
2013-12-07 11:42:00,9.7,3.1,30.66,SW,225,4.7,4.7,74,0.00,,,0.00,WUHU216HW,2013-12-07 17:42:00,
2013-12-07 11:47:00,10.1,3.3,30.66,SW,225,3.7,4.9,74,0.00,,,0.00,WUHU216HW,2013-12-07 17:47:00,
2013-12-07 11:52:00,10.3,3.0,30.66,SW,225,0.4,4.9,72,0.00,,,0.00,WUHU216HW,2013-12-07 17:52:00,
2013-12-07 11:57:00,10.3,2.6,30.65,SW,225,1.4,6.6,71,0.00,,,0.00,WUHU216HW,2013-12-07 17:57:00,
2013-12-07 12:02:00,10.3,2.6,30.65,SW,225,3.4,6.6,71,0.00,,,0.00,WUHU216HW,2013-12-07 18:02:00,
2013-12-07 12:07:00,10.1,2.2,30.65,SW,225,3.7,7.2,70,0.00,,,0.00,WUHU216HW,2013-12-07 18:07:00,
2013-12-07 12:12:00,10.3,2.6,30.65,SW,225,3.0,7.2,71,0.00,,,0.00,WUHU216HW,2013-12-07 18:12:00,
2013-12-07 12:17:00,10.4,2.8,30.65,SW,225,0.4,6.9,71,0.00,,,0.00,WUHU216HW,2013-12-07 18:17:00,
2013-12-07 12:22:00,10.6,2.3,30.64,SW,225,5.2,6.2,69,0.00,,,0.00,WUHU216HW,2013-12-07 18:22:00,
2013-12-07 12:27:00,10.4,2.5,30.64,SW,225,5.4,6.2,70,0.00,,,0.00,WUHU216HW,2013-12-07 18:27:00,
2013-12-07 12:32:00,10.8,2.5,30.64,SW,225,3.7,5.4,69,0.00,,,0.00,WUHU216HW,2013-12-07 18:32:00,
2013-12-07 12:38:00,11.0,2.4,30.65,SW,225,6.9,8.4,68,0.00,,,0.00,WUHU216HW,2013-12-07 18:38:00,
2013-12-07 12:43:00,11.0,2.7,30.65,SW,225,5.4,8.4,69,0.00,,,0.00,WUHU216HW,2013-12-07 18:43:00,
2013-12-07 12:48:00,11.2,2.6,30.64,SW,225,5.2,9.4,68,0.00,,,0.00,WUHU216HW,2013-12-07 18:48:00,
2013-12-07 12:53:00,11.3,3.1,30.64,SW,225,5.4,9.4,69,0.00,,,0.00,WUHU216HW,2013-12-07 18:53:00,
2013-12-07 12:58:00,11.5,3.2,30.64,SW,225,3.7,6.9,69,0.00,,,0.00,WUHU216HW,2013-12-07 18:58:00,
2013-12-07 13:03:00,11.9,3.2,30.64,SW,225,5.9,7.4,68,0.00,,,0.00,WUHU216HW,2013-12-07 19:03:00,
2013-12-07 13:08:00,11.9,2.6,30.64,SW,225,4.4,8.4,66,0.00,,,0.00,WUHU216HW,2013-12-07 19:08:00,
2013-12-07 13:13:00,11.9,3.0,30.64,SW,225,3.7,8.4,67,0.00,,,0.00,WUHU216HW,2013-12-07 19:13:00,
2013-12-07 13:18:00,12.1,3.2,30.64,SW,225,3.7,6.2,67,0.00,,,0.00,WUHU216HW,2013-12-07 19:18:00,
2013-12-07 13:23:00,12.1,3.4,30.64,SW,225,2.0,7.6,68,0.00,,,0.00,WUHU216HW,2013-12-07 19:23:00,
2013-12-07 13:28:00,12.1,3.2,30.64,SW,225,5.4,7.6,67,0.00,,,0.00,WUHU216HW,2013-12-07 19:28:00,
2013-12-07 13:33:00,12.4,3.5,30.64,SW,225,3.7,8.4,67,0.00,,,0.00,WUHU216HW,2013-12-07 19:33:00,
2013-12-07 13:38:00,12.2,3.3,30.64,SW,225,6.9,8.4,67,0.00,,,0.00,WUHU216HW,2013-12-07 19:38:00,
2013-12-07 13:43:00,12.2,3.6,30.64,SW,225,3.7,6.9,68,0.00,,,0.00,WUHU216HW,2013-12-07 19:43:00,
2013-12-07 13:48:00,12.6,3.0,30.63,SW,225,4.4,9.4,65,0.00,,,0.00,WUHU216HW,2013-12-07 19:48:00,
2013-12-07 13:53:00,12.6,3.3,30.63,SW,225,5.9,9.4,66,0.00,,,0.00,WUHU216HW,2013-12-07 19:53:00,
2013-12-07 13:58:00,12.6,3.0,30.62,SW,225,5.9,6.6,65,0.00,,,0.00,WUHU216HW,2013-12-07 19:58:00,
2013-12-07 14:03:00,13.0,3.3,30.62,SW,225,5.2,7.4,65,0.00,,,0.00,WUHU216HW,2013-12-07 20:03:00,
2013-12-07 14:08:00,13.1,3.2,30.62,SW,225,3.7,7.4,64,0.00,,,0.00,WUHU216HW,2013-12-07 20:08:00,
2013-12-07 14:13:00,13.1,2.8,30.62,SW,225,5.9,5.9,63,0.00,,,0.00,WUHU216HW,2013-12-07 20:13:00,
2013-12-07 14:18:00,13.1,2.8,30.62,SW,225,2.8,5.9,63,0.00,,,0.00,WUHU216HW,2013-12-07 20:18:00,
2013-12-07 14:23:00,13.1,3.5,30.62,SW,225,2.8,4.9,65,0.00,,,0.00,WUHU216HW,2013-12-07 20:23:00,
2013-12-07 14:28:00,13.3,3.7,30.62,SW,225,1.2,3.7,65,0.00,,,0.00,WUHU216HW,2013-12-07 20:28:00,
2013-12-07 14:33:00,13.3,3.3,30.63,SW,225,3.4,6.9,64,0.00,,,0.00,WUHU216HW,2013-12-07 20:33:00,
2013-12-07 14:38:00,13.3,3.3,30.63,SW,225,3.7,6.9,64,0.00,,,0.00,WUHU216HW,2013-12-07 20:38:00,
2013-12-07 14:43:00,13.3,3.3,30.63,SW,225,6.2,6.2,64,0.00,,,0.00,WUHU216HW,2013-12-07 20:43:00,
2013-12-07 14:48:00,13.3,3.3,30.63,SW,225,4.2,6.2,64,0.00,,,0.00,WUHU216HW,2013-12-07 20:48:00,
2013-12-07 14:53:00,13.3,2.7,30.63,SW,225,7.6,7.6,62,0.00,,,0.00,WUHU216HW,2013-12-07 20:53:00,
2013-12-07 14:59:00,13.3,3.0,30.63,SW,225,3.4,7.6,63,0.00,,,0.00,WUHU216HW,2013-12-07 20:59:00,
2013-12-07 15:04:00,13.5,3.2,30.63,SW,225,3.7,5.2,63,0.00,,,0.00,WUHU216HW,2013-12-07 21:04:00,
2013-12-07 15:09:00,13.3,2.7,30.63,SW,225,0.4,5.2,62,0.00,,,0.00,WUHU216HW,2013-12-07 21:09:00,
2013-12-07 15:14:00,13.3,3.0,30.63,SW,225,2.0,5.4,63,0.00,,,0.00,WUHU216HW,2013-12-07 21:14:00,
2013-12-07 15:19:00,13.3,2.7,30.62,SW,225,2.8,7.6,62,0.00,,,0.00,WUHU216HW,2013-12-07 21:19:00,
2013-12-07 15:24:00,13.3,3.0,30.62,SW,225,0.4,7.6,63,0.00,,,0.00,WUHU216HW,2013-12-07 21:24:00,
2013-12-07 15:29:00,13.3,2.7,30.62,SW,225,5.6,5.6,62,0.00,,,0.00,WUHU216HW,2013-12-07 21:29:00,
2013-12-07 15:34:00,13.3,2.4,30.62,SW,225,4.9,5.6,61,0.00,,,0.00,WUHU216HW,2013-12-07 21:34:00,
2013-12-07 15:39:00,13.3,2.4,30.62,SW,225,2.2,5.2,61,0.00,,,0.00,WUHU216HW,2013-12-07 21:39:00,
2013-12-07 15:44:00,13.1,2.5,30.62,SW,225,3.0,5.2,62,0.00,,,0.00,WUHU216HW,2013-12-07 21:44:00,
2013-12-07 15:49:00,13.1,2.8,30.62,SW,225,3.2,5.2,63,0.00,,,0.00,WUHU216HW,2013-12-07 21:49:00,
2013-12-07 15:54:00,13.1,2.8,30.62,SW,225,2.0,3.7,63,0.00,,,0.00,WUHU216HW,2013-12-07 21:54:00,
2013-12-07 15:59:00,13.0,2.4,30.63,SW,225,2.0,7.4,62,0.00,,,0.00,WUHU216HW,2013-12-07 21:59:00,
2013-12-07 16:04:00,13.1,2.8,30.63,SW,225,3.0,7.4,63,0.00,,,0.00,WUHU216HW,2013-12-07 22:04:00,
2013-12-07 16:09:00,12.8,2.8,30.63,SW,225,5.2,5.6,64,0.00,,,0.00,WUHU216HW,2013-12-07 22:09:00,
2013-12-07 16:14:00,12.6,2.3,30.62,SW,225,3.7,5.2,63,0.00,,,0.00,WUHU216HW,2013-12-07 22:14:00,
2013-12-07 16:19:00,12.6,2.3,30.62,SW,225,4.0,6.4,63,0.00,,,0.00,WUHU216HW,2013-12-07 22:19:00,
2013-12-07 16:24:00,12.4,2.4,30.62,SW,225,3.2,6.4,64,0.00,,,0.00,WUHU216HW,2013-12-07 22:24:00,
2013-12-07 16:29:00,12.2,2.3,30.62,SW,225,2.8,3.4,64,0.00,,,0.00,WUHU216HW,2013-12-07 22:29:00,
2013-12-07 16:34:00,12.1,2.1,30.62,SW,225,3.0,5.9,64,0.00,,,0.00,WUHU216HW,2013-12-07 22:34:00,
2013-12-07 16:39:00,12.1,2.4,30.62,SW,225,0.4,5.9,65,0.00,,,0.00,WUHU216HW,2013-12-07 22:39:00,
2013-12-07 16:44:00,12.1,2.4,30.62,SW,225,3.4,3.4,65,0.00,,,0.00,WUHU216HW,2013-12-07 22:44:00,
2013-12-07 16:49:00,11.9,1.9,30.62,SW,225,3.0,3.4,64,0.00,,,0.00,WUHU216HW,2013-12-07 22:49:00,
2013-12-07 16:54:00,11.9,1.9,30.62,SW,225,2.0,3.4,64,0.00,,,0.00,WUHU216HW,2013-12-07 22:54:00,
2013-12-07 16:59:00,11.7,1.8,30.62,SW,225,2.8,3.2,64,0.00,,,0.00,WUHU216HW,2013-12-07 22:59:00,
2013-12-07 17:05:00,11.3,1.8,30.63,SW,225,3.0,3.7,65,0.00,,,0.00,WUHU216HW,2013-12-07 23:05:00,
2013-12-07 17:10:00,11.2,1.6,30.63,SW,225,3.2,3.7,65,0.00,,,0.00,WUHU216HW,2013-12-07 23:10:00,
2013-12-07 17:15:00,11.2,1.6,30.63,SW,225,1.4,3.4,65,0.00,,,0.00,WUHU216HW,2013-12-07 23:15:00,
2013-12-07 17:20:00,11.0,1.5,30.62,SW,225,1.2,3.4,65,0.00,,,0.00,WUHU216HW,2013-12-07 23:20:00,
2013-12-07 17:25:00,10.8,1.5,30.62,SW,225,1.0,3.4,66,0.00,,,0.00,WUHU216HW,2013-12-07 23:25:00,
2013-12-07 17:30:00,10.6,1.5,30.63,SW,225,1.2,3.4,66,0.00,,,0.00,WUHU216HW,2013-12-07 23:30:00,
2013-12-07 17:35:00,10.4,1.3,30.62,SW,225,0.8,2.0,66,0.00,,,0.00,WUHU216HW,2013-12-07 23:35:00,
2013-12-07 17:42:00,9.9,0.7,30.62,SW,225,0.8,2.0,66,0.00,,,0.00,WUHU216HW,2013-12-07 23:42:00,
2013-12-07 17:49:00,9.7,0.9,30.62,SW,225,0.8,1.2,67,0.00,,,0.00,WUHU216HW,2013-12-07 23:49:00,
2013-12-07 17:54:00,9.7,1.2,30.62,SW,225,0.4,1.2,68,0.00,,,0.00,WUHU216HW,2013-12-07 23:54:00,
2013-12-07 17:59:00,9.9,1.4,30.62,SW,225,0.4,1.2,68,0.00,,,0.00,WUHU216HW,2013-12-07 23:59:00,
2013-12-07 18:04:00,9.9,1.4,30.62,SW,225,0.4,0.4,68,0.00,,,0.00,WUHU216HW,2013-12-08 00:04:00,
2013-12-07 18:09:00,9.9,1.4,30.62,SW,225,1.2,1.2,68,0.00,,,0.00,WUHU216HW,2013-12-08 00:09:00,
2013-12-07 18:14:00,9.7,1.2,30.62,SW,225,1.2,1.2,68,0.00,,,0.00,WUHU216HW,2013-12-08 00:14:00,
2013-12-07 18:19:00,9.7,1.2,30.62,SW,225,1.2,1.2,68,0.00,,,0.00,WUHU216HW,2013-12-08 00:19:00,
2013-12-07 18:24:00,9.7,0.9,30.62,SW,225,1.2,1.2,67,0.00,,,0.00,WUHU216HW,2013-12-08 00:24:00,
2013-12-07 18:29:00,9.7,1.2,30.61,SW,225,0.4,1.2,68,0.00,,,0.00,WUHU216HW,2013-12-08 00:29:00,
2013-12-07 18:34:00,9.7,1.2,30.61,SW,225,0.0,1.2,68,0.00,,,0.00,WUHU216HW,2013-12-08 00:34:00,
2013-12-07 18:39:00,9.4,0.9,30.62,SW,225,0.4,1.2,68,0.00,,,0.00,WUHU216HW,2013-12-08 00:39:00,
2013-12-07 18:44:00,9.2,1.1,30.61,SW,225,2.2,2.2,69,0.00,,,0.00,WUHU216HW,2013-12-08 00:44:00,
2013-12-07 18:49:00,9.0,0.9,30.61,SW,225,1.2,2.8,69,0.00,,,0.00,WUHU216HW,2013-12-08 00:49:00,
2013-12-07 18:54:00,9.0,1.3,30.61,SW,225,1.2,2.8,70,0.00,,,0.00,WUHU216HW,2013-12-08 00:54:00,
2013-12-07 18:59:00,8.8,1.1,30.61,SW,225,1.4,2.0,70,0.00,,,0.00,WUHU216HW,2013-12-08 00:59:00,
2013-12-07 19:04:00,8.6,0.9,30.61,SW,225,1.0,1.4,70,0.00,,,0.00,WUHU216HW,2013-12-08 01:04:00,
2013-12-07 19:09:00,8.5,0.7,30.61,SW,225,0.4,1.4,70,0.00,,,0.00,WUHU216HW,2013-12-08 01:09:00,
2013-12-07 19:14:00,8.6,0.9,30.61,SW,225,0.4,1.2,70,0.00,,,0.00,WUHU216HW,2013-12-08 01:14:00,
2013-12-07 19:19:00,8.6,0.9,30.61,SW,225,1.4,1.8,70,0.00,,,0.00,WUHU216HW,2013-12-08 01:19:00,
2013-12-07 19:24:00,8.6,0.9,30.60,SW,225,1.4,2.4,70,0.00,,,0.00,WUHU216HW,2013-12-08 01:24:00,
2013-12-07 19:29:00,8.6,0.5,30.60,SW,225,1.2,2.4,69,0.00,,,0.00,WUHU216HW,2013-12-08 01:29:00,
2013-12-07 19:34:00,8.3,0.5,30.60,SW,225,1.8,1.8,70,0.00,,,0.00,WUHU216HW,2013-12-08 01:34:00,
2013-12-07 19:39:00,8.3,0.5,30.60,SW,225,2.0,2.0,70,0.00,,,0.00,WUHU216HW,2013-12-08 01:39:00,
2013-12-07 19:44:00,8.3,0.5,30.60,SW,225,2.8,2.8,70,0.00,,,0.00,WUHU216HW,2013-12-08 01:44:00,
2013-12-07 19:49:00,8.3,0.5,30.60,SW,225,2.2,2.8,70,0.00,,,0.00,WUHU216HW,2013-12-08 01:49:00,
2013-12-07 19:54:00,8.1,0.4,30.59,SW,225,1.8,4.7,70,0.00,,,0.00,WUHU216HW,2013-12-08 01:54:00,
2013-12-07 19:59:00,8.1,0.4,30.60,SW,225,1.8,4.7,70,0.00,,,0.00,WUHU216HW,2013-12-08 01:59:00,
2013-12-07 20:04:00,8.1,0.4,30.59,SW,225,1.2,3.4,70,0.00,,,0.00,WUHU216HW,2013-12-08 02:04:00,
2013-12-07 20:09:00,7.9,0.2,30.59,SW,225,0.4,2.2,70,0.00,,,0.00,WUHU216HW,2013-12-08 02:09:00,
2013-12-07 20:14:00,7.9,0.2,30.59,SW,225,0.4,1.8,70,0.00,,,0.00,WUHU216HW,2013-12-08 02:14:00,
2013-12-07 20:19:00,7.9,0.2,30.59,SW,225,0.0,1.8,70,0.00,,,0.00,WUHU216HW,2013-12-08 02:19:00,
2013-12-07 20:24:00,7.7,0.3,30.59,SW,225,0.4,1.0,71,0.00,,,0.00,WUHU216HW,2013-12-08 02:24:00,
2013-12-07 20:29:00,7.9,0.5,30.59,SW,225,1.4,2.0,71,0.00,,,0.00,WUHU216HW,2013-12-08 02:29:00,
2013-12-07 20:34:00,7.9,0.5,30.59,SW,225,1.2,2.0,71,0.00,,,0.00,WUHU216HW,2013-12-08 02:34:00,
2013-12-07 20:39:00,7.9,0.5,30.59,SW,225,1.0,1.8,71,0.00,,,0.00,WUHU216HW,2013-12-08 02:39:00,
2013-12-07 20:44:00,7.9,0.2,30.59,SW,225,0.4,2.0,70,0.00,,,0.00,WUHU216HW,2013-12-08 02:44:00,
2013-12-07 20:49:00,7.7,0.0,30.59,SW,225,1.8,2.0,70,0.00,,,0.00,WUHU216HW,2013-12-08 02:49:00,
2013-12-07 20:54:00,7.6,-0.2,30.59,SW,225,0.2,1.8,70,0.00,,,0.00,WUHU216HW,2013-12-08 02:54:00,
2013-12-07 20:59:00,7.6,-0.2,30.59,SW,225,1.0,1.2,70,0.00,,,0.00,WUHU216HW,2013-12-08 02:59:00,
2013-12-07 21:04:00,7.6,0.1,30.59,SW,225,0.4,1.0,71,0.00,,,0.00,WUHU216HW,2013-12-08 03:04:00,
2013-12-07 21:09:00,7.4,-0.1,30.59,SW,225,0.0,0.8,71,0.00,,,0.00,WUHU216HW,2013-12-08 03:09:00,
2013-12-07 21:14:00,7.2,-0.3,30.59,SW,225,0.8,0.8,71,0.00,,,0.00,WUHU216HW,2013-12-08 03:14:00,
2013-12-07 21:19:00,7.0,-0.2,30.59,SW,225,0.4,1.2,72,0.00,,,0.00,WUHU216HW,2013-12-08 03:19:00,
2013-12-07 21:24:00,7.0,-0.4,30.60,SW,225,0.0,1.2,71,0.00,,,0.00,WUHU216HW,2013-12-08 03:24:00,
2013-12-07 21:30:00,7.0,-0.2,30.59,SW,225,0.4,0.4,72,0.00,,,0.00,WUHU216HW,2013-12-08 03:30:00,
2013-12-07 21:35:00,6.8,-0.6,30.59,SW,225,0.4,1.2,71,0.00,,,0.00,WUHU216HW,2013-12-08 03:35:00,
2013-12-07 21:40:00,6.5,-0.7,30.60,SW,225,0.0,1.2,72,0.00,,,0.00,WUHU216HW,2013-12-08 03:40:00,
2013-12-07 21:45:00,6.3,-0.9,30.60,SW,225,0.0,0.4,72,0.00,,,0.00,WUHU216HW,2013-12-08 03:45:00,
2013-12-07 21:50:00,6.3,-0.9,30.60,SW,225,0.0,0.0,72,0.00,,,0.00,WUHU216HW,2013-12-08 03:50:00,
2013-12-07 21:55:00,6.3,-0.5,30.59,SW,225,0.4,0.8,73,0.00,,,0.00,WUHU216HW,2013-12-08 03:55:00,
2013-12-07 22:00:00,6.3,-0.5,30.59,SW,225,0.4,0.8,73,0.00,,,0.00,WUHU216HW,2013-12-08 04:00:00,
2013-12-07 22:05:00,6.5,-0.3,30.59,SW,225,0.0,0.4,73,0.00,,,0.00,WUHU216HW,2013-12-08 04:05:00,
2013-12-07 22:10:00,6.7,-0.2,30.59,SW,225,0.2,0.8,73,0.00,,,0.00,WUHU216HW,2013-12-08 04:10:00,
2013-12-07 22:15:00,6.5,-0.3,30.59,SW,225,0.0,0.8,73,0.00,,,0.00,WUHU216HW,2013-12-08 04:15:00,
2013-12-07 22:20:00,6.5,-0.3,30.59,SW,225,0.8,1.0,73,0.00,,,0.00,WUHU216HW,2013-12-08 04:20:00,
2013-12-07 22:25:00,6.5,-0.3,30.59,SW,225,0.8,1.0,73,0.00,,,0.00,WUHU216HW,2013-12-08 04:25:00,
2013-12-07 22:30:00,6.5,-0.3,30.59,SW,225,0.4,1.0,73,0.00,,,0.00,WUHU216HW,2013-12-08 04:30:00,
2013-12-07 22:35:00,6.3,-0.5,30.59,SW,225,0.0,1.0,73,0.00,,,0.00,WUHU216HW,2013-12-08 04:35:00,
2013-12-07 22:40:00,6.3,-0.5,30.59,SW,225,0.0,1.0,73,0.00,,,0.00,WUHU216HW,2013-12-08 04:40:00,
2013-12-07 22:45:00,6.1,-0.7,30.59,SW,225,0.0,0.0,73,0.00,,,0.00,WUHU216HW,2013-12-08 04:45:00,
2013-12-07 22:50:00,6.1,-0.7,30.59,SW,225,0.2,0.4,73,0.00,,,0.00,WUHU216HW,2013-12-08 04:50:00,
2013-12-07 22:55:00,6.1,-0.4,30.59,SW,225,0.0,0.4,74,0.00,,,0.00,WUHU216HW,2013-12-08 04:55:00,
2013-12-07 23:00:00,6.3,-0.3,30.59,SW,225,0.0,0.4,74,0.00,,,0.00,WUHU216HW,2013-12-08 05:00:00,
2013-12-07 23:01:00,6.3,-0.3,30.59,SW,225,0.0,0.4,74,0.00,,,0.00,WUHU216HW,2013-12-08 05:01:00,
2013-12-07 23:02:00,6.3,-0.3,30.59,SW,225,0.0,0.4,74,0.00,,,0.00,WUHU216HW,2013-12-08 05:02:00,
2013-12-07 23:07:00,6.1,-0.4,30.58,SW,225,0.4,0.4,74,0.00,,,0.00,WUHU216HW,2013-12-08 05:07:00,
2013-12-07 23:12:00,6.1,-0.4,30.59,SW,225,0.0,0.4,74,0.00,,,0.00,WUHU216HW,2013-12-08 05:12:00,
2013-12-07 23:17:00,6.1,-0.4,30.59,SW,225,0.0,0.2,74,0.00,,,0.00,WUHU216HW,2013-12-08 05:17:00,
2013-12-07 23:22:00,5.8,-0.8,30.60,SW,225,0.0,0.0,74,0.00,,,0.00,WUHU216HW,2013-12-08 05:22:00,
2013-12-07 23:27:00,5.4,-1.2,30.59,SW,225,0.0,0.0,74,0.00,,,0.00,WUHU216HW,2013-12-08 05:27:00,
2013-12-07 23:32:00,5.2,-1.3,30.60,SW,225,0.0,0.0,74,0.00,,,0.00,WUHU216HW,2013-12-08 05:32:00,
2013-12-07 23:37:00,4.9,-1.7,30.60,SW,225,0.0,0.0,74,0.00,,,0.00,WUHU216HW,2013-12-08 05:37:00,
2013-12-07 23:42:00,4.7,-1.6,30.60,SW,225,0.0,0.0,75,0.00,,,0.00,WUHU216HW,2013-12-08 05:42:00,
2013-12-07 23:47:00,4.7,-1.6,30.60,SW,225,0.0,0.0,75,0.00,,,0.00,WUHU216HW,2013-12-08 05:47:00,
2013-12-07 23:52:00,4.7,-1.6,30.60,SW,225,0.0,0.0,75,0.00,,,0.00,WUHU216HW,2013-12-08 05:52:00,
2013-12-07 23:57:00,4.5,-1.8,30.60,SW,225,0.0,0.0,75,0.00,,,0.00,WUHU216HW,2013-12-08 05:57:00,